User: anonymous   Login
Location: Unspecified
(0.0000°N, 0.0000°E)
Time: 06:36:49
(UTC+00:00)
Language:

CUTE 1.7 + AOD 2 - Orbit

View from above orbital plane
View from above orbital plane
View from above satellite
View from above satellite

Ground track
Ground track

The orbit data is extracted from the following two-line orbital elements,

1 32785U 08021C   15214.21130196  .00000829  00000-0  98432-4 0  9991
2 32785 097.6456 256.0723 0011826 275.3244 157.4968 14.86984469393075
Epoch (UTC): 02 August 2015 05:04:16
Eccentricity: 0.0011826
inclination: 97.6456°
perigee height: 599 km
apogee height: 615 km
right ascension of ascending node: 256.0723°
argument of perigee: 275.3244°
revolutions per day: 14.86984469
mean anomaly at epoch: 157.4968°
orbit number at epoch: 39307

The dashed part of the orbit path shows where the satellite is in the earth's shadow,  

DLR